Timestamp (UTC),Height (m)
2024-05-06T11:00:00Z,142.25
2024-05-06T12:00:00Z,142.25
2024-05-06T13:00:00Z,142.24
2024-05-06T14:00:00Z,142.24
2024-05-06T15:00:00Z,142.24
2024-05-06T16:00:00Z,142.22
2024-05-06T17:00:00Z,142.22
2024-05-06T18:00:00Z,142.22
2024-05-06T19:00:00Z,142.22
2024-05-06T20:00:00Z,142.21
2024-05-06T21:00:00Z,142.20
2024-05-06T22:00:00Z,142.20
2024-05-06T23:00:00Z,142.19
2024-05-07T00:00:00Z,142.19
2024-05-07T01:00:00Z,142.18
2024-05-07T02:00:00Z,142.18
2024-05-07T03:00:00Z,142.17
2024-05-07T04:00:00Z,142.17
2024-05-07T05:00:00Z,142.16
2024-05-07T06:00:00Z,142.15
2024-05-07T07:00:00Z,142.15
2024-05-07T08:00:00Z,142.15
2024-05-07T09:00:00Z,142.14
2024-05-07T10:00:00Z,142.14
2024-05-07T11:00:00Z,142.13
2024-05-07T12:00:00Z,142.12
2024-05-07T13:00:00Z,142.12
2024-05-07T14:00:00Z,142.11
2024-05-07T15:00:00Z,142.11
2024-05-07T16:00:00Z,142.10
2024-05-07T17:00:00Z,142.10
2024-05-07T18:00:00Z,142.09
2024-05-07T19:00:00Z,142.09
2024-05-07T20:00:00Z,142.08
2024-05-07T21:00:00Z,142.08
2024-05-07T22:00:00Z,142.07
2024-05-07T23:00:00Z,142.07
2024-05-08T00:00:00Z,142.06
2024-05-08T01:00:00Z,142.06
2024-05-08T02:00:00Z,142.05
2024-05-08T03:00:00Z,142.05
2024-05-08T04:00:00Z,142.05
2024-05-08T05:00:00Z,142.04
2024-05-08T06:00:00Z,142.03
2024-05-08T07:00:00Z,142.03
2024-05-08T08:00:00Z,142.03
2024-05-08T09:00:00Z,142.02
2024-05-08T10:00:00Z,142.01
2024-05-08T11:00:00Z,142.01
2024-05-08T12:00:00Z,142.00
2024-05-08T13:00:00Z,142.00
2024-05-08T14:00:00Z,142.00
2024-05-08T15:00:00Z,141.99
2024-05-08T16:00:00Z,141.99
2024-05-08T17:00:00Z,141.98
2024-05-08T18:00:00Z,141.98
2024-05-08T19:00:00Z,141.97
2024-05-08T20:00:00Z,141.97
2024-05-08T21:00:00Z,141.96
2024-05-08T22:00:00Z,141.96
2024-05-08T23:00:00Z,141.96
2024-05-09T00:00:00Z,141.95
2024-05-09T01:00:00Z,141.94
2024-05-09T02:00:00Z,141.94
2024-05-09T03:00:00Z,141.94
2024-05-09T04:00:00Z,141.93
2024-05-09T05:00:00Z,141.92
2024-05-09T06:00:00Z,141.91
2024-05-09T07:00:00Z,141.91
2024-05-09T08:00:00Z,141.91
2024-05-09T09:00:00Z,141.90
2024-05-09T10:00:00Z,141.90
2024-05-09T11:00:00Z,141.90
2024-05-09T12:00:00Z,141.89
2024-05-09T13:00:00Z,141.89
2024-05-09T14:00:00Z,141.88
2024-05-09T15:00:00Z,141.88
2024-05-09T16:00:00Z,141.88
2024-05-09T17:00:00Z,141.87
2024-05-09T18:00:00Z,141.87
2024-05-09T19:00:00Z,141.86
2024-05-09T20:00:00Z,141.85
2024-05-09T21:00:00Z,141.85
2024-05-09T22:00:00Z,141.84
2024-05-09T23:00:00Z,141.84
2024-05-10T00:00:00Z,141.84
2024-05-10T01:00:00Z,141.83
2024-05-10T02:00:00Z,141.83
2024-05-10T03:00:00Z,141.82
2024-05-10T04:00:00Z,141.82
2024-05-10T05:00:00Z,141.81
2024-05-10T06:00:00Z,141.81
2024-05-10T07:00:00Z,141.80
2024-05-10T08:00:00Z,141.79
2024-05-10T09:00:00Z,141.78
2024-05-10T10:00:00Z,141.79